Location: Drebach
(50.6670°N, 13.0330°E)
Time: 06:44:25
(UTC+01:00)

ISS - Pass Details

Date: 01 February 2021
Orbit: 417 x 422 km, 51.6° (Epoch: 05 March)

Event Time Altitude Azimuth Distance (km) Brightness Sun altitude
Rises 18:53:12 0° 286° (WNW) 2,375 1.4 -18.0°
Reaches altitude 10° 18:55:20 10° 280° (W) 1,508 0.2 -18.3°
Maximum altitude 18:58:36 47° 206° (SSW) 567 -3.0 -18.8°
Enters shadow 18:59:30 36° 160° (SSE) 682 -2.9 -18.9°
